{"data":{"norad_id":58453,"epoch":"2026-05-24T17:13:58.852992Z","epoch_age_seconds":89657,"freshness":"FRESH","line1":"1 58453U 23183S   26144.71804228 -.00002511  00000+0 -81766-4 0  9993","line2":"2 58453  43.0040 332.1021 0001827 272.2012  87.8630 15.27577039138363","mean_motion":15.27577039,"eccentricity":0.0001827,"inclination_deg":43.004,"raan_deg":332.1021,"arg_perigee_deg":272.2012,"mean_anomaly_deg":87.863,"bstar":-8.1766e-5,"rev_number":13836,"period_min":94.266931436903,"perigee_km":481.80442203357,"apogee_km":484.31150267281,"semimajor_km":6861.1949623532,"source":"CELESTRAK","updated_at":"2026-05-25T13:38:18.625283Z"}}